STARLINK-32936 (63147 NORAD) Tracking and Keplerian Element Data

This shows tracking and keplerian element data for the satellite.

Feedback or suggestion? Click here.




ElementValue
Catalog63147
NameSTARLINK-32936
Epoch Orbit4505
Epoch Day353.72488964
Epoch Year2025
RAAN114.6867
Inclination43.0016
Eccentricity0.0001338
Argument of Perigee260.921
Mean Anonmoly99.149
Mean Motion15.27592329
Decay Rate0.00014982
L11 63147U 25043R 25353.72488964 .00014982 00000+0 55264-3 0 9999
L22 63147 43.0016 114.6867 0001338 260.9210 99.1490 15.27592329 45056



Live tracking and technical data element details for STARLINK-32936 (NORAD 63147). STARLINK-32936 can be tracked NOW for your location showing map with azimuth and elevation plus other details from your city location.







IsCatalogInMostPopularTable: catalog: 63147, numindb: 2
Update: records affected: 1



GetName: 63147 STARLINK-32936

Hit Count: updated at: Sun, 08 Feb 2026 17:15:36 GMT